Velovelo
Português Nederlands 日本語 中文
Español English čeština slovenčina
русский italiano polski norsk
français Deutsch svenska عربي
 
 vorige pagina
 Stuur naar een vriend
 Print dit artikel
 ---> La Corima Drôme Provençale 2012 : Résultats du 104 km

Résultats électroniques réalisés par KMS informatique (08 92 68 33 13 - 0,34 €/mn) notre partenaire chronométrage.

ClasDos.NomPrénomCatC.c.Temps... .Moy...
1 720 LE-DERF LOIC A 1 02:48:05 37.48
2 212 PARA JEROME B 1 02:48:06 37.48
3 5 JOUFFRET SEBASTIEN B 2 02:48:07 37.47
4 32 HALGAND PATRICE B 3 02:48:08 37.47
5 162 FOURNIER-BIDOZ MICHAEL A 2 02:48:10 37.46
6 49 FAURE HERVE B 4 02:48:17 37.44
7 4 RIMOUX SYLVAIN A 3 02:49:00 37.28
8 604 MORLOT FREDERIC B 5 02:50:57 36.85
9 557 NODIN SYLVAIN A 4 02:50:58 36.85
10 161 LAVERNHE RICHARD C 1 02:50:59 36.85
11 877 MOSSLER JOHANN A 5 02:50:59 36.85
12 1168 BOGO DAVID C 2 02:51:00 36.84
13 651 RICAU CHARLES A 6 02:51:00 36.84
14 649 BAPTMALE JULIEN B 6 02:51:00 36.84
15 171 BORTHIEWIEZ JONATHAN A 7 02:51:00 36.84
16 37 ANDRE RAPHAEL B 7 02:51:01 36.84
17 516 LUTZ YANNICK C 3 02:51:02 36.83
18 7 CALLIGARO VALENTIN A 8 02:51:02 36.83
19 207 LINQUETTE BERTRAND C 4 02:51:02 36.83
20 131 RIMOUX FABIEN C 5 02:51:03 36.83
21 9 OLIVIERA THIERRY C 6 02:51:05 36.82
22 73 GODEST SEBASTIEN C 7 02:51:12 36.80
23 89 QUINTANA JEROME C 8 02:54:40 36.07
24 1445 GRAZIANO BERNARD C 9 02:54:41 36.07
25 761 MARTZ FABRICE B 8 02:54:41 36.07
26 201 CHERFAOUI DAMIEN A 9 02:54:42 36.06
27 41 BEHRENS PATRICK C 10 02:54:42 36.06
28 200 DUBESSET GERALD B 9 02:54:42 36.06
29 965 LHOSTE DAVID B 10 02:54:43 36.06
30 64 SOUBRIER ROLAND B 11 02:54:43 36.06
31 114 BRUTTOMESSO DANIEL D 1 02:54:43 36.06
32 8 RIFFARD ANTHONY A 10 02:54:43 36.06
33 888 HERNANDEZ JEAN-PHILIPPE B 12 02:54:44 36.05
34 94 GILLET ROMUALD C 11 02:54:44 36.05
35 883 GARCIA-SANCHEZ JOSE E 1 02:54:44 36.05
36 773 GOUTAGNY NICOLAS B 13 02:54:45 36.05
37 122 RABUSSIER OLIVIER B 14 02:54:45 36.05
38 650 SICARD ALEXIS A 11 02:54:47 36.04
39 6 SPECOGNA YVAN C 12 02:54:48 36.04
40 165 NAVEZ GREGORY B 15 02:54:58 36.01
41 167 RODESCHINI VINCENT B 16 02:57:12 35.55
42 511 DENIS LUDOVIC C 13 02:57:29 35.50
43 839 KALKIAS WILFRIED B 17 02:57:39 35.46
44 180 ENTWISTLE CRAIG C 14 02:57:39 35.46
45 211 FOROT YVES E 2 02:57:41 35.46
46 191 FERAPY HERVE A 12 02:58:28 35.30
47 771 CASTELLANO MARC D 2 02:58:41 35.26
48 846 GRENIER YOANN B 18 02:58:41 35.26
49 1176 MINOT ALEXANDRE B 19 02:58:46 35.24
50 110 MOREL- PETITGIRARD MARLENE W1 1 02:58:47 35.24
51 289 PIC GERARD D 3 02:58:47 35.24
52 979 BONNY ROBERT E 3 02:58:48 35.23
53 945 THIMON GILBERT D 4 02:58:48 35.23
54 457 PEJOT JEROME B 20 02:58:48 35.23
55 899 RIFFARD FRANCK C 15 02:58:49 35.23
56 1420 AVANCES CHRISTOPHE C 16 02:58:49 35.23
57 155 CHILOTTI JULIEN B 21 02:58:49 35.23
58 170 BOUVIER BERNARD D 5 02:58:51 35.23
59 10 GEVAUDAN DIDIER B 22 02:58:52 35.22
60 65 UBERTO GILLES D 6 02:58:52 35.22
61 654 DUMAS THIERRRY C 17 02:58:52 35.22
62 594 GONZALVEZ LILIAN A 13 02:58:53 35.22
63 1352 BENETON HERVE C 18 02:58:53 35.22
64 640 FAYOLLE JEAN-MICHEL C 19 02:58:53 35.22
65 1188 LOISON NICOLAS B 23 02:58:54 35.22
66 124 AUDET SEBASTIEN B 24 02:59:07 35.17
67 59 BERTET ALAIN F 1 02:59:58 35.01
68 1161 CHARRIN JEROME B 25 02:59:58 35.01
69 1255 SZTELMA YVAN B 26 02:59:58 35.01
70 1390 MORNET SYLVAIN A 14 02:59:58 35.01
71 1095 PERRIER ROGER E 4 02:59:58 35.01
72 1206 ROZEC JEAN-NOEL D 7 02:59:58 35.01
73 22 MERIAUX VALERY C 20 02:59:59 35.00
74 90 CLEMENT SERGE C 21 02:59:59 35.00
75 1406 PERROUX DAVID C 22 02:59:59 35.00
76 1446 PRAX GUILHEM A 15 02:59:59 35.00
77 616 RIVET DIDIER C 23 03:00:00 35.00
78 505 TROUILLET ERIC C 24 03:00:00 35.00
79 1447 DEPEISSES LAURENT C 25 03:00:00 35.00
80 912 BABE MICHAEL B 27 03:00:01 35.00
81 711 CHAUDIER NORBERT C 26 03:00:01 35.00
82 1256 ALVES LUIS B 28 03:00:06 34.98
83 176 PONOT CEDRIC B 29 03:00:06 34.98
84 1102 GASQUE MARC C 27 03:00:07 34.98
85 1335 SALINAS PATRICK D 8 03:00:07 34.98
86 1403 DEPEISSES FABRICE C 28 03:00:08 34.97
87 1346 AUBERT GERARD D 9 03:00:09 34.97
88 440 MATHIOT LUDOVIC B 30 03:00:10 34.97
89 687 CAUSSEL LILIAN C 29 03:00:11 34.96
90 69 BUGNI MATHIS A 16 03:00:39 34.87
91 909 CROZIER MAXIME B 31 03:00:45 34.85
92 190 PERRIN LUDOVIC B 32 03:00:48 34.85
93 955 LIGNON ROMAIN A 17 03:01:00 34.81
94 1379 RASCLARD DANIEL D 10 03:02:18 34.56
95 1508 SOULIERE DAVID B 33 03:02:26 34.53
96 653 BORDERIE FREDERIC C 30 03:02:32 34.51
97 1448 DONCIEUX NICOLAS C 31 03:02:33 34.51
98 991 BREMONT FREDERIC B 34 03:02:37 34.50
99 1025 OUDOT ARNAUD C 32 03:02:42 34.48
100 527 BOUCHET GABRIEL D 11 03:02:46 34.47
101 803 DESLAGE BRUNO C 33 03:02:46 34.47
102 214 WILMART BRUNO C 34 03:02:51 34.45
103 93 BENEDETTO VALERE C 35 03:02:52 34.45
104 1407 SERIN FABIEN B 35 03:02:53 34.45
105 934 LEONCE THIERRY D 12 03:02:53 34.45
106 1505 CHENU REMI B 36 03:02:54 34.45
107 641 GAUVEN BRUNO C 36 03:03:05 34.41
108 1295 PIROIR FRANCK B 37 03:03:06 34.41
109 412 PERNET MICKAEL A 18 03:03:54 34.26
110 132 CHEVAILLIER JEREMIE A 19 03:03:56 34.25
111 1439 REY MATHIEU A 20 03:03:57 34.25
112 1039 FERRARIS GILLES E 5 03:04:26 34.16
113 1467 TRICHOT BENOIT B 38 03:05:29 33.97
114 398 DA-COSTA - BARROS PASCAL C 37 03:05:44 33.92
115 961 VEAU JEAN-MICHEL B 39 03:05:45 33.92
116 1342 COUDENE SEBASTIEN B 40 03:05:47 33.91
117 1332 WAGNER LUDOVIC A 21 03:05:47 33.91
118 706 DELVAL CHRISTOPHE B 41 03:05:47 33.91
119 685 MARTIN MEHDI B 42 03:05:48 33.91
120 20 LOIRET BENOIT B 43 03:05:48 33.91
121 192 DIB KARIM B 44 03:05:50 33.90
122 80 BACHELARD ERIC C 38 03:05:50 33.90
123 1047 ESQUER CHRISTOPHE D 13 03:05:51 33.90
124 1180 GABERT LAURENT C 39 03:05:52 33.90
125 745 FAURE LAURENT C 40 03:05:55 33.89
126 721 NIVOT PASCAL D 14 03:05:58 33.88
127 1375 LARDIERE ROMAIN B 45 03:06:46 33.73
128 1462 MEIGNIER GUILLAUME C 41 03:06:47 33.73
129 304 BRUNET THIERRY C 42 03:06:48 33.73
130 595 FRANCOISE PATRICK D 15 03:06:48 33.73
131 1377 CASSAGNE JORDAN B 46 03:06:48 33.73
132 1397 KUEHN INGO C 43 03:06:48 33.73
133 677 MENETRIEUX BRUNO D 16 03:06:48 33.73
134 928 SCHMIDAL BAPTISTE B 47 03:06:48 33.73
135 1315 POTY HENRI E 6 03:06:48 33.73
136 1263 JALLAT PIERRE E 7 03:06:49 33.72
137 413 TARDIEU REMY B 48 03:06:49 33.72
138 213 CHABOT GILLES E 8 03:06:49 33.72
139 1088 PERSONNE GREGORY B 49 03:06:49 33.72
140 1385 DELLACHERIE / HENRY DANIEL/ ROBERT Thom 1 03:06:50 33.72
141 320 CEZARD JEROME C 44 03:06:50 33.72
142 590 ROCHE PATRICE C 45 03:06:50 33.72
143 915 VOUILLON BERNARD E 9 03:06:50 33.72
144 1425 CROSET DIDIER D 17 03:06:50 33.72
145 1299 VOUILLON DAVID B 50 03:06:51 33.72
146 332 PEZERIL CLEMENT A 22 03:06:51 33.72
147 1244 PIAT REMI A 23 03:06:51 33.72
148 1214 ARDISSON DAVID C 46 03:06:54 33.71
149 288 BOUVET PASCAL D 18 03:06:54 33.71
150 1194 BASSET FABRICE C 47 03:06:54 33.71
151 1387 PESANTI LUDOVIC A 24 03:07:00 33.69
152 370 CANTE LIONEL B 51 03:07:01 33.69
153 1117 PANIZZI GILLES C 48 03:07:03 33.68
154 652 INCONNU C 49 03:07:04 33.68
155 1302 CARRIER FRANCK C 50 03:07:05 33.67
156 1460 FAURE JOCELYN B 52 03:07:06 33.67
157 1413 CASTET CHRISTIAN C 51 03:07:06 33.67
158 864 FOUGEROUSE LUC D 19 03:07:06 33.67
159 1440 MARTIN BRUNO C 52 03:07:22 33.62
160 1133 PASCAL OLIVIER C 53 03:07:23 33.62
161 693 DELAUZUN BRUNO C 54 03:07:51 33.54
162 1253 PERZIGUIAN JEAN A 25 03:07:52 33.53
163 1109 SPECOGNA MICKAEL B 53 03:07:56 33.52
164 1208 BOURGEOIS DAVID C 55 03:09:25 33.26
165 397 GUY FABRICE B 54 03:09:26 33.26
166 399 MARCONE RICHARD C 56 03:09:27 33.25
167 485 HADDOU ABDELKADER B 55 03:09:27 33.25
168 102 THUILLIER LOUIS E 10 03:09:30 33.25
169 865 FOHRER JEAN-CLAUDE E 11 03:09:31 33.24
170 82 BRUNEL STEPHANE C 57 03:09:32 33.24
171 419 DUROUX JACKY E 12 03:09:36 33.23
172 129 FONTANET MICHEL E 13 03:09:38 33.22
173 306 ROMIEU JEROME B 56 03:09:40 33.22
174 1234 NAVEZ PATRICK E 14 03:09:41 33.21
175 79 MARZE DENIS C 58 03:10:14 33.12
176 507 TROUSSIER PHILIPPE D 20 03:10:15 33.11
177 1068 WINTRICH STEPHANE B 57 03:10:16 33.11
178 1351 MARTINS - OLIVEIRA-DE-BARROS JOSE B 58 03:10:17 33.11
179 508 MORIN GILLES D 21 03:10:18 33.11
180 1260 MASLIAH GILLES C 59 03:10:42 33.04
181 766 BERNARD REMI B 59 03:10:50 33.01
182 140 CASTILLON JEROME B 60 03:10:51 33.01
183 927 MORO VALENTIN A 26 03:10:58 32.99
184 633 NOVELLI OLIVIER C 60 03:10:58 32.99
185 683 GISBERT ALAIN D 22 03:10:59 32.99
186 480 PERRIER GERARD E 15 03:10:59 32.99
187 1298 ROUSSET JEAN-CHRISTOPHE C 61 03:11:01 32.98
188 895 TEZIER FREDERIC C 62 03:11:01 32.98
189 922 POIRIER SULIAN B 61 03:11:05 32.97
190 1411 BORLET ALAIN E 16 03:11:17 32.94
191 849 GENEVES ROLAND D 23 03:11:19 32.93
192 1123 MARSANNE LAURENT B 62 03:11:46 32.85
193 515 GUILLOUD BENJAMIN A 27 03:12:02 32.81
194 1044 VALETTE RENAUD A 28 03:12:13 32.78
195 1003 VALERIAN JEAN-LOUIS D 24 03:12:40 32.70
196 458 GEOFFRAY PHILIPPE D 25 03:12:40 32.70
197 887 MOREL - PETITGIRARD AMELIE W1 2 03:12:43 32.69
198 986 ROMAIN PATRICK C 63 03:12:43 32.69
199 1236 BERTHON CYRIL B 63 03:12:45 32.68
200 1368 ROUSSET HUGUES C 64 03:12:47 32.68
201 1220 CHAMPAVIER LAURENCE W1 3 03:12:47 32.68
202 431 ALLARD DANIEL D 26 03:12:49 32.67
203 280 LEBEAUPIN SOPHIE W2 1 03:12:51 32.67
204 1507 BARDIN PHILIPPE D 27 03:12:54 32.66
205 1032 MARTINEZ JOCELYN D 28 03:12:57 32.65
206 379 BATY FABIEN B 64 03:13:00 32.64
207 1207 IMBERT HERVE C 65 03:13:01 32.64
208 343 VACCA ROBERT C 66 03:13:02 32.64
209 835 BRETONNIERE SYLVAIN C 67 03:13:06 32.63
210 610 CAUSSEL LOUIS F 2 03:13:06 32.63
211 1042 MARCONI EDDY B 65 03:13:07 32.62
212 1329 CABUZEL JEAN-PIERRE E 17 03:13:08 32.62
213 1510 NUGUES PASCAL C 68 03:13:09 32.62
214 1201 PUYAL PATRICK C 69 03:13:10 32.61
215 1483 JULIEN OLIVIER C 70 03:13:20 32.59
216 141 JAYME THIERRY C 71 03:13:25 32.57
217 861 CHAPON GERARD D 29 03:13:32 32.55
218 1259 DEYRES THIERRY B 66 03:13:34 32.55
219 1086 DEDIEU GAETAN A 29 03:13:34 32.55
220 805 FROGER SAMUEL B 67 03:13:44 32.52
221 1527 PRALY CLAUDE D 30 03:13:48 32.51
222 1139 GIARDINO PATRICK D 31 03:13:52 32.50
223 854 DESFORGES JOSE C 72 03:13:53 32.49
224 356 AYMOZ-BRESSOT JEAN-MARC C 73 03:14:07 32.45
225 1087 MEZGUELDI MOHAMED C 74 03:14:08 32.45
226 1089 AURECHE ETIENNE E 18 03:14:21 32.42
227 574 LILLAMAND PHILIPPE C 75 03:14:21 32.42
228 1395 COEQUYT HERVE C 76 03:14:22 32.41
229 72 CAPELLI PATRICK D 32 03:14:33 32.38
230 1113 ROUSSEL ROMAIN B 68 03:14:34 32.38
231 422 ISSARTEL LAURENT B 69 03:14:43 32.35
232 488 DELILE JEAN-CLAUDE C 77 03:14:46 32.35
233 1290 VIDAL CHRISTIAN D 33 03:15:20 32.25
234 317 AZUM LIONEL C 78 03:15:20 32.25
235 1127 BOUILLOUX CHRISTOPHE B 70 03:15:21 32.25
236 910 NIVON FABIEN C 79 03:15:21 32.25
237 1394 BOSSA BRUNO C 80 03:15:24 32.24
238 1129 CHAUVIN PASCAL C 81 03:15:44 32.19
239 139 VASSE FABRICE C 82 03:15:45 32.18
240 820 FAURE PHILIPPE C 83 03:15:54 32.16
241 186 FAYARD GILLES D 34 03:16:22 32.08
242 1202 GOUDARD VINCENT B 71 03:17:13 31.94
243 987 NOYER FABRICE D 35 03:17:14 31.94
244 607 BOURRET THIERRY D 36 03:17:15 31.94
245 1494 MENICHINI EDDY C 84 03:17:16 31.94
246 704 THEILLOUT DANIEL E 19 03:17:17 31.93
247 509 CONCORD JEAN-YVES E 20 03:17:17 31.93
248 923 BENOIT GERARD E 21 03:17:18 31.93
249 1250 ALMEDIA SILVERIO C 85 03:17:19 31.93
250 1317 HISPA PERRETTE W3 1 03:17:20 31.93
251 468 BOUJARD CHRISTIAN C 86 03:17:21 31.92
252 92 DE-SAINT-FUSCIEN ARNAUD D 37 03:17:22 31.92
253 1303 JAUFFRET MAURICE D 38 03:17:23 31.92
254 1022 DIDIER DAMIEN C 87 03:17:28 31.90
255 510 FUHRMANN YANNICK B 72 03:18:03 31.81
256 1001 LAPENDRY BRUNO B 73 03:18:07 31.80
257 1262 LAFAURY JEAN-LOUIS D 39 03:18:07 31.80
258 536 COULY EMMANUEL A 30 03:18:08 31.80
259 1014 ZANINI JEAN-PIERRE F 3 03:18:08 31.80
260 489 VILLANOVA YANN C 88 03:18:09 31.79
261 138 BUATOIS GILLES D 40 03:18:09 31.79
262 559 AUVOLAT DOMINIQUE D 41 03:18:09 31.79
263 980 LENAIN CEDRIC B 74 03:18:11 31.79
264 385 SALAVERT JEAN-PAUL C 89 03:18:13 31.78
265 1179 BARBA ROBERT E 22 03:18:15 31.78
266 395 CHAPUS YVAN E 23 03:18:16 31.78
267 293 BAILLY CHRISTOPHE C 90 03:18:18 31.77
268 956 MEGE LAURENT B 75 03:18:21 31.76
269 1030 GINON PATRICK D 42 03:18:27 31.75
270 382 GIROUDON THIERRY C 91 03:18:42 31.71
271 1015 DERVE OLIVIER C 92 03:18:53 31.68
272 993 PEYREROL GERARD F 4 03:18:53 31.68
273 926 JANDOT CEDRIC B 76 03:18:54 31.67
274 1080 DOKOUTCHAEF FABIEN A 31 03:18:54 31.67
275 842 BRIANT JACQUES F 5 03:18:55 31.67
276 1481 MESONA CHRISTIAN D 43 03:18:56 31.67
277 1392 BOIRAYON LOIC A 32 03:18:58 31.66
278 885 PRUNARET STEPHAN C 93 03:18:59 31.66
279 1223 PAILHA DENIS C 94 03:18:59 31.66
280 87 GUEGUEN GUY C 95 03:19:23 31.60
281 375 CHAUTARD GERARD C 96 03:19:24 31.59
282 522 BERAUD NOEL D 44 03:19:34 31.57
283 727 VILLARD PATRICE C 97 03:20:13 31.47
284 1097 POTHRON JEAN-JACQUES E 24 03:20:27 31.43
285 958 BENAREAU-PEDERSEN MALENE W2 2 03:20:30 31.42
286 128 FAURE BRUNO C 98 03:20:30 31.42
287 152 BILLON FRANCK C 99 03:20:31 31.42
288 120 MASERATI SIMON D 45 03:20:31 31.42
289 1513 RIFFAULT MICHEL D 46 03:20:32 31.42
290 1371 MALECOT PIERRE E 25 03:20:39 31.40
291 908 CORTES MICHEL F 6 03:20:40 31.40
292 13 BENDALI BOUALEM B 77 03:20:41 31.39
293 1098 RENAUD CYRILLE B 78 03:20:41 31.39
294 389 BAYLE JEAN-PHILIPPE C 100 03:20:42 31.39
295 867 FUGIER PHILIPPE C 101 03:20:50 31.37
296 1437 PREFOL EMMANUEL B 79 03:21:05 31.33
297 1261 PETIT JULIEN B 80 03:21:08 31.32
298 1380 ARGUEL BERNARD F 7 03:21:16 31.30
299 548 ARLAUD ALAIN C 102 03:21:21 31.29
300 876 JIMENEZ GABRIEL-ANGEL D 47 03:21:22 31.29
301 466 DUSSARPS HERVE C 103 03:21:25 31.28
302 802 MEJEAN FABRICE C 104 03:21:38 31.24
303 943 PETRICOUL JEAN-LUC D 48 03:22:49 31.06
304 1172 LE-MEUR DANIEL F 8 03:22:55 31.05
305 838 FOUGA GILLES E 26 03:22:58 31.04
306 699 MURIGNEUX JEAN-PIERRE C 105 03:22:59 31.04
307 334 DESNOTTES JEAN-MICHEL D 49 03:23:02 31.03
308 723 GONZALEZ JEAN-LOUIS E 27 03:23:04 31.02
309 374 SCHNEIDER DIDIER C 106 03:23:08 31.01
310 1099 PUEL CHRISTIAN E 28 03:23:11 31.01
311 502 ALBERTO PASCAL D 50 03:23:14 31.00
312 1040 POLIN DELPHINE W1 4 03:23:17 30.99
313 642 RIVOLLIER PATRICE C 107 03:23:19 30.99
314 836 COMBALUZIER JEAN-LUC C 108 03:23:40 30.93
315 337 RUAT YOANN B 81 03:23:41 30.93
316 984 GAUTHIER THOMAS B 82 03:23:42 30.93
317 194 THUILLIER JEROME B 83 03:23:43 30.93
318 1393 LATAPY P C 109 03:23:56 30.89
319 1002 JOURDAIN FRANCK C 110 03:24:05 30.87
320 1006 JOURDAIN CYRIL B 84 03:24:05 30.87
321 1330 PORTA STEPHANE C 111 03:24:06 30.87
322 1312 ADAM PHILIPPE D 51 03:24:09 30.86
323 514 CHARRIN DENIS C 112 03:24:10 30.86
324 1287 THEBAUD PATRICE D 52 03:24:11 30.85
325 1427 DUC-MAUGE MICHEL D 53 03:24:12 30.85
326 920 LABAT ALAIN D 54 03:24:13 30.85
327 1454 GRILLAT SYLVAIN B 85 03:24:15 30.84
328 1186 GONZALEZ CAROLINE W1 5 03:24:15 30.84
329 785 BURTIN CHRISTIANE W3 2 03:24:15 30.84
330 834 BANOS THIERRY C 113 03:24:22 30.83
331 992 GUEZE CHRISTOPHE C 114 03:24:23 30.82
332 686 FOULQUIER PHILIPPE D 55 03:24:31 30.80
333 1308 BAROLLE JEAN-PIERRE E 29 03:24:38 30.79
334 1235 PUZIN FREDERIC C 115 03:24:50 30.76
335 612 MARTARESCHE CHRISTOPHER B 86 03:25:05 30.72
336 1374 L’HERMITTE JEROME C 116 03:26:03 30.58
337 1367 GREGOIRE XAVIER A 33 03:26:18 30.54
338 1026 BERTRAND ANNE-MARIE W2 3 03:26:21 30.53
339 897 FAURE ALAIN D 56 03:26:22 30.53
340 1007 FOURNIER DOMINIQUE C 117 03:26:23 30.53
341 832 GENEST PIERRE B 87 03:26:23 30.53
342 751 SISTERNES RAYMOND F 9 03:26:25 30.52
343 328 DA-EIRA CELESTINO B 88 03:26:33 30.50
344 184 FAURE DENIS D 57 03:26:44 30.47
345 1049 FERRUS SEBASTIEN B 89 03:27:12 30.41
346 331 PEZERIL NORBERT C 118 03:27:59 30.29
347 869 BASSET THIERRY C 119 03:28:03 30.28
348 738 LAMBOLEY JEAN-JACQUES E 30 03:28:05 30.28
349 592 GUIBERT SYLVAIN C 120 03:28:06 30.27
350 619 PLAN YANNICK B 90 03:28:08 30.27
351 784 MAT JACQUES E 31 03:28:09 30.27
352 538 BAETZ JEAN-PIERRE E 32 03:28:10 30.26
353 326 DESCHAMPS BERNARD D 58 03:28:12 30.26
354 1031 FAUTRERO JULIEN C 121 03:28:13 30.26
355 576 BOUZONNET CHRISTIAN E 33 03:28:14 30.25
356 1093 PLASSERAUD ERIC D 59 03:28:16 30.25
357 1318 ARNAUD JOEL E 34 03:28:17 30.25
358 297 CHAPONNEAU PATRICE D 60 03:28:18 30.24
359 195 BILLAT LIONEL C 122 03:28:19 30.24
360 359 BABELOT GERALDINE W2 4 03:28:21 30.24
361 497 GAUZY-DESPRET MARIE W1 6 03:28:22 30.24
362 1561 SIMON THIERRY D 61 03:28:23 30.23
363 1195 LAVERGNE JEAN-PAUL E 35 03:28:25 30.23
364 853 ETIENNE PATRICK E 36 03:28:38 30.20
365 935 PUERTA OLIVIER B 91 03:28:49 30.17
366 662 MOLINARI ROBERT E 37 03:28:52 30.16
367 355 PARET FREDERIC C 123 03:28:54 30.16
368 631 MALVEAU JEAN-LUC D 62 03:28:57 30.15
369 378 ROCHER PATRICE C 124 03:28:59 30.15
370 546 CHASSERAY CLAUDE E 38 03:29:00 30.14
371 1245 CHOVIN CHRISTOPHE B 92 03:29:29 30.07
372 1141 CHIGNARDET YOHAN A 34 03:29:29 30.07
373 635 ZURFLUH UGO Rdom 1 03:29:43 30.04
374 636 ZURFLUH CHRISTIAN C 125 03:29:44 30.04
375 995 LAPENDRY DAVID B 93 03:29:45 30.04
376 874 CORNET PHILIPPE B 94 03:29:48 30.03
377 156 PUJANTE FREDERIC B 95 03:30:08 29.98
378 1048 BOUTOUIL GILBERT D 63 03:30:18 29.96
379 1468 MOLY DAVID B 96 03:30:22 29.95
380 629 COLASANTI ROBERT E 39 03:30:23 29.95
381 1156 AVET MICHEL B 97 03:30:26 29.94
382 1062 MARCON VINCENT D 64 03:30:35 29.92
383 1140 MECHIN ERIC C 126 03:30:35 29.92
384 1444 CATEL CHRISTIAN E 40 03:30:39 29.91
385 281 DOUCHE PHILIPPE C 127 03:30:39 29.91
386 809 GUITTON PASCAL C 128 03:30:41 29.90
387 960 AMELIN CYRIL C 129 03:31:19 29.81
388 460 OBOZIL-GACHE GEORGES C 130 03:31:20 29.81
389 1204 HURSTEL VINCENT D 65 03:31:22 29.81
390 1402 CROQUELOIS MICKAEL B 98 03:31:23 29.80
391 1013 VINSON DENIS D 66 03:31:23 29.80
392 1300 LAUPEN BRUNO B 99 03:31:33 29.78
393 402 CUINET ROLAND F 10 03:31:34 29.78
394 1181 LEON FREDERIC B 100 03:31:37 29.77
395 996 MAUBLANC MARIE-ODILE W3 3 03:31:38 29.77
396 19 MARMILLOUD CHRISTOPHE C 131 03:31:39 29.77
397 1241 FRELAND PASCAL D 67 03:31:40 29.76
398 1170 BOUVIER FABIEN B 101 03:31:42 29.76
399 438 TOUNY CHRISTIAN F 11 03:31:43 29.76
400 833 CHABANEL JOEL D 68 03:31:46 29.75
401 504 VASSAL PIERRE B 102 03:31:46 29.75
402 347 RIDEL GILLES C 132 03:31:50 29.74
403 1171 BAYLE MARIE-ASTRID W1 7 03:31:53 29.73
404 1197 LEMONNIER ALAIN D 69 03:31:53 29.73
405 618 LUTUN OLIVIER C 133 03:31:54 29.73
406 750 ALIAGA JEAN-PAUL E 41 03:31:54 29.73
407 715 GUEZE JEAN-LUC C 134 03:31:54 29.73
408 916 CHUARD CHRISTOPHE C 135 03:31:55 29.73
409 1305 MARTEL YANNICK C 136 03:31:56 29.73
410 930 PRAT ALAIN D 70 03:31:58 29.72
411 942 GASCON CAROL C 137 03:32:06 29.70
412 340 GOUMAZ ALBIN C 138 03:32:06 29.70
413 1190 BOMPARD CHRISTIAN E 42 03:32:08 29.70
414 267 BERTRAND JEAN-MARC D 71 03:32:08 29.70
415 335 CHABRIER FITZGERALD B 103 03:32:13 29.69
416 98 COQUILLAT MAURICE F 12 03:32:19 29.67
417 702 AUZAS HERVE C 139 03:32:22 29.67
418 1288 HIDREAU JEAN-MARC E 43 03:32:47 29.61
419 637 RAFFIN CHRISTIAN E 44 03:32:47 29.61
420 843 QUARESIMA PATRICE D 72 03:32:49 29.60
421 21 OUMEDDOUR KARIM B 104 03:32:57 29.58
422 1452 POZZETTO JACQUES C 140 03:32:59 29.58
423 1512 VERNAY JEAN-KARL A 35 03:32:59 29.58
424 783 SABATIER MICHEL C 141 03:32:59 29.58
425 1116 DABONNEAU ERIC C 142 03:33:01 29.58
426 435 BRUTOUT JEAN-CLAUDE E 45 03:33:14 29.55
427 850 BLANC SEBASTIEN B 105 03:33:26 29.52
428 1205 ROUX JEAN-CLAUDE D 73 03:33:43 29.48
429 1471 NICOLE LAURENT C 143 03:33:44 29.48
430 137 CASEROTTO BRUNO D 74 03:33:53 29.46
431 907 GERBERON OLIVIER C 144 03:33:57 29.45
432 1399 KESSLER BERNARD D 75 03:34:14 29.41
433 1017 AUBERT PATRICE D 76 03:34:20 29.39
434 1304 PESANTI ISABELLE W2 5 03:34:23 29.39
435 764 BOLLENGIER ERIC D 77 03:34:27 29.38
436 1480 FAUQUE PATRICK D 78 03:34:40 29.35
437 1074 BOLLIET DENIS E 46 03:34:41 29.35
438 1388 MUR STEPHAN C 145 03:34:42 29.34
439 322 LAVAURE MICHEL D 79 03:34:42 29.34
440 858 DEMANGE BERNARD F 13 03:34:45 29.34
441 1320 ANDRE GUY E 47 03:34:48 29.33
442 1138 BONNEAU FREDERIC B 106 03:34:48 29.33
443 788 FEVRE MICHEL D 80 03:34:50 29.33
444 970 COMBE PHILIPPE D 81 03:34:53 29.32
445 969 SCALA ALAIN C 146 03:34:53 29.32
446 816 SCALA OLIVIER B 107 03:34:53 29.32
447 890 DELOLME JEAN-YVES C 147 03:34:56 29.31
448 860 DOMERGUE GERARD D 82 03:34:57 29.31
449 409 BORGHETTI FRANCK C 148 03:34:59 29.30
450 1142 SAAS MATTHIEU B 108 03:35:09 29.28
451 1225 HENRY GEORGES E 48 03:35:10 29.28
452 1370 LAPOUGE GILLES C 149 03:35:11 29.28
453 1147 STOCCHI GIANNI A 36 03:35:16 29.27
454 1152 RIBIERE PHILIPPE C 150 03:35:20 29.26
455 643 CHARNI ANISS B 109 03:35:48 29.19
456 957 ALBOUSSIERE EMELINE W1 8 03:36:03 29.16
457 1158 DALVERNY FREDERIC B 110 03:36:07 29.15
458 603 BIASINI ERIC C 151 03:36:11 29.14
459 1478 AUZET STEPHANE C 152 03:36:36 29.09
460 601 SIMON GEORGES D 83 03:36:46 29.06
461 828 MOUIN PATRICK D 84 03:36:48 29.06
462 391 LACHEVRE MATTHIEU B 111 03:37:11 29.01
463 707 GUILLAUMONT FREDERIC B 112 03:37:15 29.00
464 1418 HEYWOOD DAN B 113 03:37:19 28.99
465 1430 FAURE MAX C 153 03:37:33 28.96
466 1563 LANDRE GILBERT F 14 03:37:37 28.95
467 796 BODIN JEAN-MARC C 154 03:37:50 28.92
468 526 DANOIZEL SERGE E 49 03:38:08 28.88
469 1523 PEYRO MICHEL C 155 03:38:11 28.87
470 1082 LAPEYRE YVES F 15 03:38:31 28.83
471 710 MIGNOT FREDERIC C 156 03:38:32 28.83
472 875 GOURLAOUEN CHRISTIAN C 157 03:38:37 28.82
473 1314 AGOSTI JEAN-MARIE E 50 03:38:38 28.82
474 345 PARRA FRANCIS F 16 03:38:38 28.82
475 857 MUGNIER ROLAND C 158 03:38:40 28.81
476 542 LAPORTE SILVY W2 6 03:38:41 28.81
477 572 BARRAGAN ADRIAN B 114 03:38:42 28.81
478 973 POSSE NADEGE W1 9 03:38:43 28.80
479 50 VACHIER AURORE W1 10 03:38:46 28.80
480 997 MAUBLANC JEAN-PAUL F 17 03:39:06 28.75
481 1341 ROYER CLAUDE C 159 03:39:07 28.75
482 1079 MARLIERE GIOVANNI D 85 03:39:13 28.74
483 1459 LUCINI ROBIN B 115 03:39:13 28.74
484 478 MARTIN PHILIPPE C 160 03:39:41 28.68
485 360 SOUCAZE OLIVIER B 116 03:39:55 28.65
486 1386 AIMAR JACQUES D 86 03:40:00 28.64
487 967 POIRIEUX ADRIEN A 37 03:40:32 28.57
488 1398 BENIER SEBASTIEN B 117 03:40:41 28.55
489 1497 REYNIER CHRISTOPHE C 161 03:40:41 28.55
490 1216 FAVRE MICHEL D 87 03:41:00 28.51
491 682 CLEMENT PATRICK C 162 03:41:08 28.49
492 881 LAHUERTA JEAN-PAUL C 163 03:41:09 28.49
493 587 POCHEVILLE ARNAUD B 118 03:41:42 28.42
494 1482 RIFFARD PHILIPPE D 88 03:41:54 28.39
495 913 TAVARES CAMILLE C 164 03:42:09 28.36
496 606 REFFET LUDOVIC B 119 03:42:11 28.35
497 989 CLAVEL PHILIPPE D 89 03:42:22 28.33
498 703 PICART JEROME B 120 03:42:23 28.33
499 608 ROBERT GERARD D 90 03:42:24 28.33
500 743 MERY PIERRE D 91 03:42:24 28.33
501 994 BENOIT GUY F 18 03:42:45 28.28
502 437 FERRAND DIDIER D 92 03:42:46 28.28
503 569 MEDIEL PIERRE D 93 03:43:15 28.22
504 1258 REBOUL THIERRY C 165 03:43:25 28.20
505 1118 STIRNEMANN CHRISTIAN C 166 03:43:40 28.17
506 614 DUPUY THIERRY C 167 03:43:55 28.14
507 1121 DESCAMPS JEROME B 121 03:44:21 28.08
508 579 BLANCHARD SERGE C 168 03:44:23 28.08
509 684 CHENEVIER LAURENT C 169 03:44:28 28.07
510 663 MAZUREK PATRICK D 94 03:44:31 28.06
511 302 DENEUVE GERARD E 51 03:44:59 28.00
512 622 DUIZIDOU NICOLAS C 170 03:45:15 27.97
513 31 TONDELLI LUCIANO D 95 03:45:30 27.94
514 533 METAYER MARC D 96 03:45:44 27.91
515 1053 TIBERGHIEN GERARD D 97 03:45:45 27.91
516 1535 TERZIBACHIAN FRANCK M 1 03:45:52 27.89
517 1027 POUPEL PATRICK C 171 03:45:53 27.89
518 1073 FRAISSE FREDERIC E 52 03:45:59 27.88
519 1500 LAPIERRE CHRISTOPHE C 172 03:46:02 27.87
520 578 GAY MICHEL E 53 03:46:06 27.86
521 193 EXTRA DENIS D 98 03:46:09 27.86
522 1534 ARNAUD FRANCK C 173 03:46:14 27.85
523 696 GOTTI FREDERIC C 174 03:46:26 27.82
524 353 BEAUMONT LAURENT C 175 03:46:34 27.81
525 1067 GIMEL MARCEL F 19 03:46:37 27.80
526 580 DUBUY PASCAL C 176 03:46:38 27.80
527 736 COLLOMBAT GERARD F 20 03:46:41 27.79
528 999 CASTEX JEAN-LOUIS F 21 03:46:46 27.78
529 1345 DELASARA THIERRY D 99 03:46:47 27.78
530 659 LAMBERT GILLES C 177 03:47:01 27.75
531 800 DURAND AUGUSTE F 22 03:47:02 27.75
532 433 JARLE JEAN-PIERRE D 100 03:47:10 27.73
533 1166 ORIOL CHRISTOPHE C 178 03:47:16 27.72
534 38 PAGLIA GIANNI C 179 03:47:27 27.70
535 157 HILAIRE PIERRE E 54 03:47:43 27.67
536 39 PAGLIA CRISTIAN B 122 03:47:45 27.66
537 34 FOURTIN MYRIAM W3 4 03:47:57 27.64
538 423 BRUNET ERIC D 101 03:47:57 27.64
539 670 BRUNEAU LOIC C 180 03:48:17 27.60
540 260 LHERMITE FREDERIC C 181 03:48:31 27.57
541 371 BUGNI PATRICK D 102 03:48:32 27.57
542 1419 BLANC GUILLAUME B 123 03:48:38 27.56
543 1165 BEYSSAC JEAN-ANTOINE A 38 03:48:48 27.53
544 1442 BAUD CATHERINE W2 7 03:48:57 27.52
545 269 VALIERGUES MARIE-LAURE W2 8 03:49:13 27.48
546 406 TALLARON YVES D 103 03:49:22 27.47
547 1311 ADAM ANNE W2 9 03:49:33 27.45
548 1019 SAURA ANTHONY B 124 03:50:10 27.37
549 873 CARBONE GREGORY B 125 03:50:26 27.34
550 977 DUC NICOLAS B 126 03:50:26 27.34
551 787 EGIDO MANUEL D 104 03:50:32 27.33
552 976 POIROT STEPHANE C 182 03:50:43 27.31
553 368 HELMER PATRICE B 127 03:50:44 27.30
554 801 PAILLER ERWAN C 183 03:50:56 27.28
555 481 PALIERNE CHRISTIAN E 55 03:50:57 27.28
556 1160 MAURIN PHILIPPE D 105 03:50:59 27.27
557 938 RAMOS ANTONIO C 184 03:51:10 27.25
558 871 HIBOT MARCEL E 56 03:51:11 27.25
559 1470 FABRE CHRISTIAN E 57 03:51:15 27.24
560 737 VIBERT EMILE F 23 03:52:18 27.12
561 500 BEE REGIS C 185 03:52:23 27.11
562 1515 INCONNU C 186 03:52:25 27.11
563 348 PINIAC DOMINIQUE D 106 03:52:33 27.09
564 1414 GUILLOT CHRISTIAN D 107 03:53:01 27.04
565 1384 CHARMASSON MARC D 108 03:53:43 26.96
566 392 BAILLEST LAURENT C 187 03:53:57 26.93
567 388 SINICO PATRICK D 109 03:54:03 26.92
568 1502 DELHAYE STEPHANE C 188 03:54:37 26.85
569 998 GUILLAUD JACQUES E 58 03:54:44 26.84
570 1373 LEVASSEUR ERIC C 189 03:54:57 26.81
571 1136 BONANSEA GILBERT D 110 03:55:04 26.80
572 962 LUTAUD JEROME C 190 03:55:24 26.76
573 894 VANTIEGHEM LUCETTE W3 5 03:55:25 26.76
574 357 REYMOND FRANCK C 191 03:55:33 26.75
575 252 DE-GEITERE NICOLAS B 128 03:55:42 26.73
576 1149 RICO HERVE C 192 03:55:52 26.71
577 882 JARDIN MICHEL D 111 03:55:56 26.70
578 1196 BRUNEL JEAN-PIERRE C 193 03:57:07 26.57
579 1493 IROS BRUNO B 129 03:57:22 26.54
580 35 JAMIN RICHARD C 194 03:57:42 26.50
581 831 ARCIS FABIEN B 130 03:57:42 26.50
582 415 MORISOT FABIEN C 195 03:57:44 26.50
583 911 FAVEREAU GERARD D 112 03:57:47 26.49
584 429 GUICHARD PAUL D 113 03:57:53 26.48
585 1247 LAGAND PHILIPPE D 114 03:58:05 26.46
586 1359 AGNEL VERONIQUE W1 11 03:58:21 26.43
587 889 BULAND PHILIPPE B 131 03:59:12 26.34
588 1322 MUNOZ FREDERIC B 132 03:59:35 26.30
589 660 BECCAMEL PIERRE F 24 03:59:36 26.29
590 384 VELOSO SERGE C 196 04:00:15 26.22
591 1525 SAINTBONNET NATHALIE W2 10 04:00:30 26.20
592 712 BERNARD EMILE F 25 04:00:55 26.15
593 759 FAURE CEDRIC B 133 04:00:56 26.15
594 275 EYMERY DAMIEN C 197 04:01:09 26.12
595 1024 CHARMETTE BERNARD D 115 04:01:18 26.11
596 978 VERGNAUD DAVID C 198 04:01:24 26.10
597 768 PIGA PIERO D 116 04:01:29 26.09
598 968 MAUNIER ERIC C 199 04:01:33 26.08
599 529 PERRA ELISABETH W2 11 04:01:34 26.08
600 632 KASSER CLAIRE-SOPHIE W2 12 04:01:34 26.08
601 540 PETIT DANIEL D 117 04:02:00 26.03
602 924 NADREAU JACK D 118 04:02:04 26.03
603 1524 CHABERT FLORENT C 200 04:02:07 26.02
604 1065 VAN-DE-GINSTE NOEL D 119 04:02:32 25.98
605 393 BAUDOUY JEAN-JACQUES C 201 04:02:40 25.96
606 1115 THOMAS PATRICK D 120 04:02:40 25.96
607 1486 DAVID PIERRE-ALAIN D 121 04:02:42 25.96
608 863 FALLU TONY E 59 04:02:43 25.96
609 283 RUETSCH DELPHINE W1 12 04:02:53 25.94
610 891 BEGARD JEAN-MARC D 122 04:03:16 25.90
611 664 LEY JEAN-PHILIPPE D 123 04:03:21 25.89
612 521 DAGOSTINO ERIC E 60 04:04:36 25.76
613 718 GIUDICELLI JACQUES D 124 04:04:37 25.75
614 1465 NORET FABRICE D 125 04:04:38 25.75
615 373 BENOIT PATRICK C 202 04:04:51 25.73
616 701 BERTRAND PHILIPPE C 203 04:04:52 25.73
617 1487 DONNADIEU GUILHEM C 204 04:04:59 25.72
618 1222 LEGRAND THIERRY D 126 04:05:16 25.69
619 671 MAYOUD THIERRY B 134 04:05:27 25.67
620 571 DARGET-LACOSTE VALERIE W2 13 04:05:27 25.67
621 1506 BESSONE MARION W1 13 04:05:58 25.61
622 1344 LAURENT PHILIPPE D 127 04:05:58 25.61
623 1060 GIL JACINTO D 128 04:05:59 25.61
624 1294 CHARMASSON JEAN-LOUIS E 61 04:06:00 25.61
625 639 GRAFFANT NICOLAS B 135 04:06:00 25.61
626 1122 BLANCHARD MARC D 129 04:06:23 25.57
627 1495 BATISTA MANUEL D 130 04:06:56 25.51
628 625 JACQUEMET BRUNO C 205 04:07:07 25.49
629 624 JACQUEMET VALENTIN A 39 04:07:07 25.49
630 1154 GAILLARD LIONEL C 206 04:07:27 25.46
631 822 SOUBEYRAND DANIEL D 131 04:07:50 25.42
632 1331 GUENARD ALAIN D 132 04:08:11 25.38
633 1212 GUILLEN PHILIPPE D 133 04:08:23 25.36
634 627 COMTE SERGE B 136 04:08:31 25.35
635 1456 LIARD JACQUELINE W3 6 04:08:36 25.34
636 386 GRIOLET ANDRE D 134 04:08:36 25.34
637 1120 VANDEVELDE MAXIME B 137 04:08:42 25.33
638 716 BERNARD FRANCK C 207 04:08:50 25.32
639 467 BAUBET DENIS F 26 04:09:57 25.21
640 903 DOIZE GILLES C 208 04:10:02 25.20
641 501 ROUX GERARD D 135 04:10:05 25.19
642 844 NEYRET PATRICK D 136 04:10:40 25.13
643 1210 VEYRIER GIL C 209 04:10:40 25.13
644 498 GAUZY MAXIME B 138 04:10:44 25.13
645 1396 MAROUZE ERIC C 210 04:10:46 25.12
646 698 GUENARD CHRISTIAN D 137 04:11:40 25.03
647 615 DUMOULIN NATHALIE W2 14 04:12:02 25.00
648 188 FLORET PATRICK D 138 04:12:40 24.93
649 1426 GALANO MARC B 139 04:12:43 24.93
650 1458 TESTE REGIS B 140 04:12:54 24.91
651 760 WULLEMS PHILIPPE D 139 04:12:56 24.91
652 695 DITLECADET LAURENT B 141 04:13:18 24.87
653 1058 MOENCH OLIVIER C 211 04:13:36 24.84
654 1085 PRAL RENE F 27 04:13:49 24.82
655 939 MOMBLED PASCAL D 140 04:14:36 24.74
656 914 DEWAELE MICHEL F 28 04:14:41 24.74
657 1562 MALOSSE CECILIA W1 14 04:14:51 24.72
658 1504 PASCALIS MICHEL C 212 04:14:53 24.72
659 795 BOURRON GERARD F 29 04:15:01 24.70
660 299 PASCAL CLAUDE E 62 04:15:37 24.65
661 1531 CHARLE CHRISTINE W3 7 04:15:55 24.62
662 1343 DATY CHRISTIAN E 63 04:16:04 24.60
663 1421 DI-NICOLA MICHEL D 141 04:16:32 24.56
664 1034 CHEVALIER STEPHANE C 213 04:17:24 24.48
665 517 DURAND XAVIER C 214 04:18:27 24.38
666 1348 DROGUE CHANTAL W2 15 04:18:39 24.36
667 1286 PERNY GERARD C 215 04:18:40 24.36
668 1339 PATRAS DENIS D 142 04:18:40 24.36
669 16 MAHTEU FRANCOIS D 143 04:19:06 24.31
670 25 LESAGE PHILIPPE D 144 04:19:08 24.31
671 790 GUILLON CORINNE W2 16 04:19:13 24.30
672 1131 SALAMONE HERVE B 142 04:19:32 24.27
673 1126 COULON DANIEL E 64 04:19:37 24.27
674 305 DUCKWITZ DANIEL B 143 04:19:47 24.25
675 1501 FAURE ANDRE F 30 04:20:14 24.21
676 15 GUILLERMIN ALAIN E 65 04:20:27 24.19
677 770 GANILLE SYLVIE W2 17 04:20:46 24.16
678 1316 GERBELOT MICHEL E 66 04:22:06 24.04
679 537 CROUZET RENE F 31 04:23:00 23.95
680 1441 JACOVETTI ROGER F 32 04:23:18 23.93
681 387 PELLIER CHRISTIAN F 33 04:23:18 23.93
682 732 HAVARD PIERRE D 145 04:23:40 23.89
683 1326 VILAIN LYDIA W1 15 04:24:10 23.85
684 1243 HIDALGO PATRICK D 146 04:24:20 23.83
685 314 SIPION PATRICK D 147 04:24:32 23.82
686 354 LATELLA DOMINIQUE C 216 04:24:32 23.82
687 1353 MARTINEZ SERGE F 34 04:26:42 23.62
688 1366 BIZET DAVID B 144 04:27:04 23.59
689 324 AESCHBACHER WERNER E 67 04:27:55 23.51
690 1492 LIAUME FRANCOIS E 68 04:27:59 23.51
691 568 LAURAIRE GILBERT E 69 04:28:25 23.47
692 617 PELLORCE PATRICK D 148 04:28:44 23.44
693 644 MARTIN MICKAEL B 145 04:28:55 23.43
694 185 ROUSTAN GERARD D 149 04:29:01 23.42
695 1228 LARDY ALAIN F 35 04:29:02 23.42
696 1033 GAVORY BERNARD D 150 04:29:51 23.35
697 626 BATIN JACQUES E 70 04:30:08 23.32
698 628 REGNIER CHRISTIAN F 36 04:30:09 23.32
699 719 CARTURAN DANIEL E 71 04:31:18 23.22
700 1270 SCALVINI LAURENT C 217 04:31:47 23.18
701 1016 DERVE ANDRE F 37 04:33:56 23.00
702 323 CABANEL CHRISTIAN F 38 04:35:08 22.90
703 1272 TAVERNE JEAN-MARC D 151 04:36:07 22.82
704 1376 DESOIDE ANNE W2 18 04:39:24 22.55
705 1429 IMBERT JEAN-FRANCOIS D 152 04:39:25 22.55
706 301 BERNARD DANIEL E 72 04:40:29 22.46
707 1084 DUMONT PHILIPPE E 73 04:41:09 22.41
708 380 MOULIN BERNARD D 153 04:41:16 22.40
709 493 NOUVION VINCENT C 218 04:42:21 22.31
710 365 WATY PASCAL D 154 04:42:56 22.27
711 646 KOCZANSKI JOSEPH F 39 04:45:25 22.07
712 826 MAZOYER CATHERINE W2 19 04:46:50 21.96
713 825 MAZOYER GILLES D 155 04:46:52 21.96
714 1498 MECA BESNIK D 156 04:47:25 21.92
715 1182 FONTANA JEAN-MARC C 219 04:48:49 21.81
716 490 SANTINI THIERRY C 220 04:48:49 21.81
717 308 LANGIERT THIERRY D 157 04:49:23 21.77
718 276 MONNEYRON GILLES D 158 04:49:23 21.77
719 1277 RICHEZ HERVE D 159 04:50:28 21.69
720 1369 SEVERAC BERNARD D 160 04:52:30 21.54
721 1271 CALSAT HERVE C 221 04:53:56 21.43
722 523 BRUN CHRISTIAN D 161 04:56:37 21.24
723 730 JORDAN-MEILLE MICHEL E 74 04:57:05 21.21
724 797 COMBE GERARD E 75 04:59:23 21.04
725 972 ROSE GERARD F 40 04:59:37 21.03
726 183 GASQUET JEAN-LOUIS F 41 04:59:43 21.02
727 263 MONTAGNIER ROBERT E 76 05:00:14 20.98
728 905 GUILLOBEZ BERNADETTE W3 8 05:00:21 20.98
729 975 GUILLOBEZ SERGE F 42 05:00:22 20.97
730 1336 TRICARD MANUEL D 162 05:01:32 20.89
731 444 COTE-COLISSON CHRISTINE W2 20 05:03:44 20.74
732 1434 ROCHER FRANCOISE W3 9 05:03:44 20.74
733 1246 DAVY JOAKIM B 146 05:04:30 20.69
734 475 JOURDAN MAURICE E 77 05:04:47 20.67
735 496 CHAGOUNOFF MAGALIE W2 21 05:04:49 20.67
736 1273 ZANON SERGE D 163 05:13:13 20.11
737 1146 BRAILLY JULIEN B 147 05:13:36 20.09
738 266 MOURIER PHILIPPE D 164 05:14:45 20.02
739 264 CURNIER JEAN-CLAUDE E 78 05:14:45 20.02
740 746 VINCENT CLAUDE F 43 05:17:06 19.87
741 896 GILQUIN JEAN-PIERRE D 165 05:17:19 19.85
742 1292 CHRISTEL PATRICE E 79 05:17:19 19.85
743 187 MARRON PHILIPPE D 166 05:17:42 19.83
744 586 GANIVET JACQUES E 80 05:17:43 19.83
745 1560 INCONNU C 222 05:24:05 19.44
746 169 MORO JEAN-LOUIS D 167 05:26:29 19.30
747 1274 BEDEJUS SERGE D 168 05:33:44 18.88
748 1275 CHAMPION BERNARD C 223 05:33:44 18.88
749 1276 LIEUTAUD JULIAN B 148 05:33:45 18.88
750 325 AESCHBACHER ROSMARIE W3 10 05:39:59 18.53
751 84 BERNARDI CHRISTIANE W3 11 05:42:59 18.37
752 1281 BEDEJUS MYRIAM W3 12 05:48:55 18.06
753 1461 GRASSI CHRISTINE W2 22 05:48:56 18.06
754 1279 DUCHAMP REJANE W2 23 05:48:56 18.06
755 1280 MOUYON FREDERIC C 224 05:50:38 17.97

Haut 









Haut  
 Privé-site   Auteursrecht-Copyright : klik hier om te lezen !